Location: Poughquag
(41.6090°N, 73.6820°W)
Time: 14:04:05
(UTC-04:00)

Courier 1B - Pass Details

Date: 05 June 2020
Orbit: 962 x 1209 km, 28.3° (Epoch: 05 July)

Event Time Altitude Azimuth Distance (km) Brightness Sun altitude
Rises 22:07:32 0° 228° (SW) 3,769 10.5 -15.1°
Reaches altitude 10° 22:10:48 10° 213° (SSW) 2,860 9.8 -15.5°
Maximum altitude 22:16:01 23° 165° (SSE) 2,149 8.8 -16.1°
Enters shadow 22:16:42 22° 157° (SSE) 2,172 8.7 -16.2°
